[[{"header":{"parameterUnit":"m.s-1","parameterCategory":1,"la1":30.2991,"la2":30.254,"lo1":-89.0895,"lo2":-89.0444,"dy":0.0017,"dx":0.0017,"nx":28,"ny":28,"refTime":"2025-04-11T21:00:00:Z","depth":0,"parameterNumber":2,"parameterNumberName":"U-component_of_WINDS"},"data":[0,0,0,0,0,0,0,0,0,0,0,0,0,0,0,0,0,0,0,0,0,0,0,0,0,0,0,0,0,0,0,0,0,0,0,0,0,0,0,0,0,0,0,0,0,0,0,0,0,0,0,0,0,0,0,0,0,0,-0.4976,-0.4976,0,-0.4928,-0.4927,-0.4927,-0.4909,-0.4909,-0.4909,-0.4909,-0.4862,-0.486,-0.4859,0,0,0,0,0,0,0,0,0,0,0,0,0,-0.5056,-0.5055,-0.4976,-0.4976,-0.4975,-0.4928,-0.4927,-0.4927,-0.4909,-0.4909,-0.4909,-0.4909,-0.4862,-0.486,-0.4859,0,0,0,0,0,0,0,0,0,0,0,0,0,-0.5016,-0.5054,-0.4976,-0.4961,-0.4959,-0.4928,-0.4927,-0.4926,-0.4909,-0.4909,-0.4909,-0.491,-0.4863,-0.4861,-0.4858,-0.4841,0,0,-0.4852,-0.4851,0,0,0,0,0,0,0,0,-0.5018,-0.5013,-0.4964,-0.4962,-0.4959,-0.4925,-0.4938,-0.4898,-0.4909,-0.4928,-0.4909,-0.491,-0.4882,-0.4879,-0.4869,-0.4838,-0.4836,-0.4852,-0.485,-0.485,-0.4849,0,0,0,0,0,0,0,-0.5021,-0.5015,-0.4957,-0.4963,-0.496,-0.4957,-0.4951,-0.493,-0.4905,-0.4926,-0.4925,-0.4919,-0.4881,-0.4871,-0.4868,-0.4836,-0.4852,-0.485,-0.4849,-0.4848,-0.4788,-0.4788,0,0,0,0,0,0,-0.5026,-0.5017,-0.4959,-0.4956,-0.499,-0.4955,-0.4949,-0.4936,-0.4905,-0.49,-0.4919,-0.4919,-0.4875,-0.487,-0.4866,-0.4843,-0.485,-0.4848,-0.4846,-0.4788,-0.4788,-0.4788,0,0,0,0,0,0,-0.5028,-0.5021,-0.4961,-0.4986,-0.4978,-0.4953,-0.4939,-0.4935,-0.4924,-0.4899,-0.4895,-0.4913,-0.4875,-0.4869,-0.4847,-0.4841,-0.4847,-0.4845,-0.4789,-0.4788,-0.4788,-0.4797,0,0,0,0,0,0,-0.503,-0.5022,-0.5014,-0.4986,-0.4977,-0.4942,-0.4938,-0.4933,-0.492,-0.4919,-0.4893,-0.4888,-0.4875,-0.485,-0.4845,-0.4838,-0.4843,-0.4789,-0.4789,-0.4788,-0.4797,-0.4797,-0.4797,0,0,0,0,0,-0.5033,-0.5019,-0.5014,-0.5007,-0.4967,-0.4941,-0.4936,-0.492,-0.492,-0.4913,-0.4897,-0.4889,-0.4843,-0.4848,-0.4842,-0.4835,-0.4789,-0.4789,-0.4788,-0.4797,-0.4797,-0.4797,0,0,0,0,0,0,-0.5048,-0.5015,-0.5009,-0.4985,-0.4966,-0.4938,-0.4928,-0.492,-0.4901,-0.4901,-0.4883,-0.4877,-0.4856,-0.4843,-0.485,-0.4816,-0.4816,-0.4814,-0.4825,-0.4825,-0.4824,-0.4828,-0.4841,0,0,0,0,0,-0.5048,-0.503,-0.5003,-0.4984,-0.4975,-0.4953,-0.4942,-0.4931,-0.4911,-0.4903,-0.4885,-0.4866,-0.4847,-0.4835,-0.4817,-0.4796,-0.479,-0.4788,-0.4788,-0.4787,-0.4786,-0.4774,-0.4773,-0.4785,-0.4785,-0.4785,0,0,-0.5049,-0.5029,-0.5019,-0.4987,-0.4971,-0.4952,-0.4947,-0.4928,-0.4914,-0.49,-0.4878,-0.4864,-0.4842,-0.482,-0.481,-0.4809,-0.4781,-0.4787,-0.4787,-0.4785,-0.4773,-0.4772,-0.4771,-0.4785,-0.4785,-0.4785,0,0,-0.5041,-0.5024,-0.5007,-0.4991,-0.4966,-0.4952,-0.4948,-0.4921,-0.4912,-0.4889,-0.4878,-0.4862,-0.483,-0.4815,-0.4803,-0.4789,-0.4782,-0.4784,-0.4783,-0.4771,-0.477,-0.4769,-0.4764,-0.4763,-0.4783,-0.4783,-0.4783,0,-0.5046,-0.5017,-0.5,-0.4981,-0.4967,-0.4953,-0.4936,-0.4921,-0.4892,-0.4884,-0.4883,-0.4843,-0.4827,-0.4801,-0.4798,-0.4789,-0.4784,-0.4787,-0.4772,-0.4771,-0.4769,-0.4765,-0.4763,-0.4783,-0.4783,-0.4783,-0.4783,0,-0.5024,-0.5004,-0.4993,-0.4964,-0.495,-0.4932,-0.4913,-0.49,-0.4891,-0.4877,-0.4854,-0.4835,-0.4812,-0.4805,-0.4796,-0.4778,-0.4779,-0.4775,-0.4775,-0.4769,-0.4764,-0.4762,-0.4783,-0.4783,-0.4783,-0.4783,0,0,-0.5023,-0.4985,-0.4981,-0.4968,-0.494,-0.4925,-0.4907,-0.4884,-0.4873,-0.4854,-0.4839,-0.4812,-0.4809,-0.4795,-0.4785,-0.4775,-0.4765,-0.4772,-0.4772,-0.4772,-0.4745,-0.4747,-0.4745,-0.476,-0.476,-0.476,-0.4746,0,-0.5011,-0.4977,-0.4961,-0.4934,-0.4916,-0.4903,-0.4887,-0.4869,-0.4855,-0.4839,-0.4824,-0.4806,-0.4803,-0.4794,-0.4784,-0.4769,-0.476,-0.4769,-0.4746,-0.4746,-0.4752,-0.4742,-0.4745,-0.4733,-0.4744,-0.4744,-0.4744,0,-0.4993,-0.4972,-0.4944,-0.4918,-0.4909,-0.4895,-0.4873,-0.4857,-0.4836,-0.4827,-0.4812,-0.4802,-0.4783,-0.4784,-0.4759,-0.4766,-0.4755,-0.4747,-0.4746,-0.4743,-0.4744,-0.4739,-0.4729,-0.4727,-0.4741,-0.4741,-0.4741,0,-0.4995,-0.4961,-0.4939,-0.4928,-0.4897,-0.4888,-0.4875,-0.4854,-0.4841,-0.4822,-0.4814,-0.4793,-0.4782,-0.4767,-0.4751,-0.4753,-0.4727,-0.4727,-0.4719,-0.472,-0.4714,-0.4714,-0.4702,-0.4708,-0.4708,-0.4708,-0.4708,0,-0.4983,-0.4966,-0.4939,-0.4926,-0.4907,-0.4889,-0.4871,-0.4857,-0.4838,-0.4823,-0.481,-0.4796,-0.4777,-0.476,-0.4749,-0.4729,-0.4724,-0.4717,-0.4714,-0.4717,-0.4718,-0.471,-0.471,-0.4708,-0.4708,-0.4708,-0.4708,0,-0.4982,-0.4964,-0.4939,-0.4912,-0.4904,-0.4891,-0.4868,-0.4855,-0.4842,-0.4822,-0.4816,-0.4795,-0.4775,-0.4758,-0.4732,-0.4724,-0.4704,-0.4701,-0.4711,-0.4709,-0.4702,-0.4703,-0.4684,-0.468,-0.4689,-0.4689,-0.4689,0,-0.4976,-0.4962,-0.4933,-0.4921,-0.4908,-0.4889,-0.4875,-0.4858,-0.4845,-0.482,-0.481,-0.4789,-0.4771,-0.474,-0.4723,-0.4703,-0.4699,-0.4693,-0.4696,-0.47,-0.4698,-0.4699,-0.4697,-0.4693,-0.4693,-0.4693,-0.4693,0,-0.4966,-0.4957,-0.4938,-0.4915,-0.4899,-0.4881,-0.4862,-0.4854,-0.4833,-0.4819,-0.4798,-0.4784,-0.4757,-0.4736,-0.4715,-0.4702,-0.4694,-0.4692,-0.469,-0.4693,-0.4699,-0.4695,-0.471,-0.4693,-0.4693,-0.4693,-0.4693,-0.4693,-0.4961,-0.4948,-0.4926,-0.4905,-0.4889,-0.4872,-0.4858,-0.4842,-0.4824,-0.48,-0.4791,-0.477,-0.475,-0.472,-0.4707,-0.4691,-0.469,-0.4686,-0.4684,-0.4684,-0.4684,-0.4702,-0.4687,-0.4687,-0.4687,-0.4687,-0.4687,0,-0.4951,-0.4935,-0.4916,-0.489,-0.4873,-0.4867,-0.4846,-0.4833,-0.4814,-0.4795,-0.4778,-0.4754,-0.4734,-0.4715,-0.4694,-0.4685,-0.4681,-0.468,-0.468,-0.4678,-0.4686,-0.469,-0.4684,-0.4684,-0.4684,-0.4684,-0.4684,-0.4684,-0.4943,-0.4921,-0.4909,-0.4879,-0.4865,-0.4842,-0.4831,-0.4816,-0.4801,-0.4774,-0.4757,-0.4745,-0.4726,-0.4704,-0.4686,-0.4681,-0.4674,-0.4674,-0.4668,-0.4677,-0.4677,-0.4677,-0.4681,-0.4673,-0.4673,-0.4661,-0.4661,-0.4661]},{"header":{"parameterUnit":"m.s-1","parameterCategory":1,"la1":30.2991,"la2":30.254,"lo1":-89.0895,"lo2":-89.0444,"dy":0.0017,"dx":0.0017,"nx":28,"ny":28,"refTime":"2025-04-11T21:00:00:Z","depth":0,"parameterNumber":3,"parameterNumberName":"V-component_of_WINDS"},"data":[0,0,0,0,0,0,0,0,0,0,0,0,0,0,0,0,0,0,0,0,0,0,0,0,0,0,0,0,0,0,0,0,0,0,0,0,0,0,0,0,0,0,0,0,0,0,0,0,0,0,0,0,0,0,0,0,0,0,5.1891,5.1891,0,5.1887,5.1887,5.1887,5.1871,5.1871,5.1871,5.187,5.1864,5.1864,5.1865,0,0,0,0,0,0,0,0,0,0,0,0,0,5.1883,5.1883,5.1891,5.1891,5.1891,5.1887,5.1887,5.1887,5.1871,5.1871,5.187,5.187,5.1864,5.1864,5.1865,0,0,0,0,0,0,0,0,0,0,0,0,0,5.1883,5.1883,5.1891,5.1882,5.1882,5.1887,5.1887,5.1887,5.1871,5.1871,5.187,5.187,5.1864,5.1864,5.1865,5.1877,0,0,5.1865,5.1866,0,0,0,0,0,0,0,0,5.1883,5.1883,5.1884,5.1883,5.1882,5.1879,5.1882,5.1884,5.1872,5.1875,5.187,5.187,5.187,5.1869,5.187,5.1877,5.1877,5.1866,5.1866,5.1866,5.1866,0,0,0,0,0,0,0,5.1883,5.1884,5.1889,5.1884,5.1883,5.1878,5.1878,5.1882,5.1875,5.1875,5.1874,5.1874,5.1869,5.187,5.1869,5.1876,5.1865,5.1866,5.1866,5.1866,5.1895,5.1895,0,0,0,0,0,0,5.1885,5.1884,5.1889,5.1889,5.1881,5.1879,5.1878,5.1881,5.1875,5.1874,5.1874,5.1873,5.1869,5.1869,5.1869,5.1884,5.1866,5.1866,5.1866,5.1894,5.1895,5.1896,0,0,0,0,0,0,5.1884,5.1885,5.1889,5.1886,5.1886,5.188,5.1882,5.1881,5.1881,5.1875,5.1873,5.1876,5.1869,5.1869,5.1876,5.1884,5.1866,5.1866,5.1893,5.1894,5.1895,5.1914,0,0,0,0,0,0,5.1884,5.1885,5.189,5.1886,5.1887,5.1896,5.1883,5.1881,5.1882,5.1881,5.1876,5.1875,5.1868,5.1875,5.1876,5.1884,5.1867,5.1893,5.1894,5.1895,5.1912,5.1915,5.1918,0,0,0,0,0,5.1884,5.1895,5.189,5.1891,5.1893,5.1897,5.1897,5.189,5.1883,5.1888,5.1884,5.1875,5.1883,5.1876,5.1877,5.1885,5.1892,5.1894,5.1895,5.1911,5.1915,5.1918,0,0,0,0,0,0,5.1898,5.1894,5.1889,5.1899,5.1899,5.1894,5.19,5.1894,5.1894,5.1893,5.1884,5.1883,5.1891,5.1888,5.1881,5.1897,5.1886,5.1888,5.1898,5.1902,5.1904,5.1905,5.1867,0,0,0,0,0,5.1903,5.1907,5.1903,5.1912,5.1912,5.1906,5.1908,5.1903,5.1901,5.1901,5.1897,5.1896,5.1898,5.19,5.1901,5.1912,5.1911,5.1918,5.1921,5.1923,5.1924,5.1931,5.1934,5.19,5.19,5.19,0,0,5.1912,5.191,5.1913,5.1915,5.1914,5.1919,5.1906,5.1911,5.1914,5.1901,5.1908,5.1906,5.1903,5.1913,5.1917,5.1911,5.1933,5.1925,5.1926,5.1926,5.1932,5.1936,5.1938,5.1901,5.1901,5.1901,0,0,5.193,5.1929,5.1937,5.1937,5.1936,5.1933,5.1935,5.1932,5.193,5.1937,5.1927,5.1931,5.1935,5.1934,5.1934,5.1954,5.1947,5.1955,5.1969,5.1975,5.1978,5.198,5.1988,5.1991,5.1957,5.1957,5.1957,0,5.1941,5.1948,5.1942,5.1948,5.195,5.194,5.1948,5.1947,5.1947,5.1948,5.1942,5.1947,5.1945,5.1955,5.196,5.196,5.1962,5.1955,5.1978,5.198,5.1982,5.199,5.1993,5.1958,5.1958,5.1957,5.1957,0,5.1962,5.1967,5.1974,5.1975,5.1977,5.1984,5.1979,5.1982,5.1977,5.1974,5.1981,5.1978,5.198,5.1982,5.1976,5.1991,5.1987,5.198,5.1968,5.1987,5.1994,5.1996,5.1959,5.1959,5.1958,5.1958,0,0,5.1989,5.1988,5.199,5.1991,5.199,5.1994,5.2001,5.2004,5.2006,5.2007,5.2012,5.2017,5.201,5.201,5.2005,5.201,5.2028,5.2002,5.2002,5.2007,5.2044,5.205,5.2053,5.2023,5.2023,5.2024,5.2045,0,5.2007,5.202,5.2015,5.2028,5.2033,5.2024,5.203,5.203,5.2028,5.2031,5.2028,5.2032,5.2022,5.2023,5.2028,5.2025,5.2035,5.2023,5.2028,5.2028,5.2029,5.2057,5.2063,5.2083,5.2047,5.2047,5.2048,0,5.203,5.2033,5.2047,5.2046,5.2048,5.2054,5.2056,5.206,5.206,5.2058,5.2059,5.2053,5.2059,5.2049,5.2058,5.205,5.2051,5.205,5.2051,5.2051,5.2039,5.2058,5.2089,5.2092,5.2052,5.2051,5.2051,0,5.2049,5.2056,5.2066,5.2067,5.2066,5.207,5.207,5.207,5.2072,5.2074,5.2076,5.2078,5.2079,5.2081,5.2076,5.2068,5.2086,5.2074,5.2084,5.2085,5.2088,5.2088,5.212,5.2089,5.2089,5.2089,5.2089,0,5.207,5.2079,5.2074,5.208,5.209,5.2084,5.2094,5.2093,5.2093,5.2098,5.209,5.2095,5.2087,5.2092,5.2087,5.2096,5.2096,5.2095,5.2094,5.2096,5.2096,5.2097,5.2095,5.209,5.209,5.209,5.2089,0,5.2093,5.209,5.21,5.2099,5.2099,5.2107,5.2106,5.2111,5.2109,5.2115,5.2117,5.2113,5.2117,5.2112,5.2116,5.2113,5.2125,5.2122,5.2126,5.2125,5.2135,5.2135,5.2169,5.2173,5.2139,5.214,5.214,0,5.2107,5.2114,5.2114,5.2118,5.2119,5.2124,5.2127,5.2122,5.2125,5.2126,5.2132,5.2136,5.2139,5.2147,5.2144,5.2147,5.2144,5.2156,5.2144,5.2147,5.2145,5.2145,5.2146,5.2158,5.2159,5.2159,5.2159,0,5.2132,5.2131,5.2135,5.214,5.2144,5.2147,5.2149,5.2152,5.2147,5.2151,5.2157,5.2159,5.2164,5.2169,5.2171,5.2171,5.2164,5.2163,5.2165,5.2168,5.217,5.217,5.2132,5.2162,5.2162,5.2162,5.2161,5.2161,5.2151,5.2157,5.2159,5.2165,5.2166,5.2169,5.2175,5.2174,5.2178,5.2183,5.2179,5.2186,5.2187,5.219,5.219,5.2195,5.219,5.2193,5.2194,5.2195,5.2197,5.2169,5.2195,5.2195,5.2195,5.2195,5.2195,0,5.2176,5.2177,5.2183,5.2187,5.2192,5.2187,5.2189,5.2193,5.22,5.2202,5.2205,5.2212,5.2217,5.2215,5.2219,5.2223,5.2221,5.2225,5.2224,5.2224,5.2201,5.2199,5.2227,5.2227,5.2227,5.2227,5.2227,5.2227,5.219,5.22,5.2199,5.2211,5.2212,5.2219,5.2221,5.2224,5.2225,5.2234,5.2238,5.2237,5.2237,5.2242,5.2246,5.2245,5.2247,5.2252,5.2251,5.2229,5.2226,5.2223,5.2221,5.2253,5.2253,5.2273,5.2274,5.2274]}]]